Flag for Norway Weather past 2 weeks in Fosnavåg, Norway

Now
55 °F

Cool.


Feels Like: 52 °F
Forecast: 48 / 55 °F
Wind: 10 mph from West

Location: Svinoy Fyr

Current Time: Sep 21, 2014 at 2:20:57 AM

Latest Report: Sep 21, 2014 at 1:00 AM


Visibility: N/A

Pressure: 29.92 "Hg

Humidity: 73%

Dew point: 47 °F

Location of FosnavågLocation

Historic Weather in Fosnavåg — Graph

°F

Fosnavåg temperature yesterday

Maximum temperature yesterday: 61 °F (at 4:00 AM)
Minimum temperature yesterday: 55 °F (at 8:00 PM)
Average temperature yesterday: 58 °F

Past Weeks' High & Low Weather Summary

 TemperatureHumidityPressure
High62 °F (Sep 19, 2:00 PM)97% (Sep 17, 1:00 AM)30.50 "Hg (Sep 17, 1:00 AM)
Low52 °F (Sep 17, 6:00 AM)63% (Sep 19, 9:00 PM)29.82 "Hg (Sep 8, 9:00 AM)
Average57 °F85%30.15 "Hg
* Reported Sep 6 1:00 AM — Sep 21 1:00 AM, Fosnavåg, Weather by CustomWeather, © 2014

Note: Actual official high and low records may vary slightly from our data, if they occured in-between our weather recording intervals... More about our weather records

Advertising

Fosnavåg weather history for previous 24 hours

 ConditionsComfort  
Time TempWeatherWind HumidityBarometerVisibility
1:00 AM
Sep 21
55 °FCool.10 mph73%29.92 "HgN/A
12:00 AM55 °FCool.9 mph79%29.91 "HgN/A
11:00 PM
Sep 20
56 °FCool.7 mph83%29.91 "HgN/A
10:00 PM56 °FCool.8 mph84%29.90 "HgN/A
9:00 PM56 °FCool.7 mph85%29.90 "HgN/A
8:00 PM55 °FCool.7 mph83%29.90 "HgN/A
7:00 PM57 °FCool.7 mph75%29.89 "HgN/A
3:00 PM57 °FCool.8 mph74%29.90 "HgN/A
2:00 PM57 °FCool.9 mph76%29.90 "HgN/A
1:00 PM57 °FCool.12 mph77%29.88 "HgN/A
11:00 AM57 °FCool.10 mph81%29.88 "HgN/A
10:00 AM56 °FCool.7 mph94%29.87 "HgN/A
9:00 AM57 °FCool.8 mph90%29.86 "HgN/A
8:00 AM56 °FCool.9 mph89%29.86 "HgN/A
7:00 AM57 °FCool.8 mph92%29.88 "HgN/A
6:00 AM58 °FCool.10 mph89%29.88 "HgN/A
5:00 AM60 °FCool.3 mph72%29.88 "HgN/A
4:00 AM61 °FCool.7 mph72%29.90 "HgN/A
3:00 AM60 °FCool.7 mph71%29.91 "HgN/A
2:00 AM60 °FCool.7 mph70%29.93 "HgN/A
Weather by CustomWeather, © 2014

See weather overviewHow to use our weather pages